This is the latest recevied weather packets stored in our database for station/object KD9CCP. If no packets are shown the sender has not sent any weather packets the latest 10 day(s).
| Time | Temp. | Humidity | Pressure | Rain* | Wind** | Luminosity | Snow |
|---|---|---|---|---|---|---|---|
| 1777847144 | 18.33° C | 33% | 1003.8 hPa | 0 mm | - | 21 W/m² | - |
| 1777846842 | 18.33° C | 31% | 1003.7 hPa | 0 mm | - | 22 W/m² | - |
| 1777846539 | 18.33° C | 35% | 1003.7 hPa | 0 mm | - | 24 W/m² | - |
| 1777846237 | 18.33° C | 33% | 1003.5 hPa | 0 mm | - | 24 W/m² | - |
| 1777845933 | 18.89° C | 32% | 1003.7 hPa | 0 mm | - | 21 W/m² | - |
| 1777845630 | 18.89° C | 33% | 1003.6 hPa | 0 mm | - | 36 W/m² | - |
| 1777845327 | 18.89° C | 35% | 1003.7 hPa | 0 mm | - | 23 W/m² | - |
| 1777845024 | 18.89° C | 36% | 1003.6 hPa | 0 mm | - | 28 W/m² | - |
| 1777844722 | 18.89° C | 37% | 1003.5 hPa | 0 mm | - | 29 W/m² | - |
| 1777844418 | 18.89° C | 36% | 1003.6 hPa | 0 mm | - | 31 W/m² | - |
| 1777844117 | 18.89° C | 37% | 1003.3 hPa | 0 mm | - | 28 W/m² | - |
| 1777843813 | 18.89° C | 35% | 1003.4 hPa | 0 mm | - | 26 W/m² | - |
| 1777843510 | 18.89° C | 37% | 1003.5 hPa | 0 mm | - | 27 W/m² | - |
| 1777843208 | 18.89° C | 35% | 1003.4 hPa | 0 mm | - | 33 W/m² | - |
| 1777842904 | 18.89° C | 37% | 1003.4 hPa | 0 mm | - | 52 W/m² | - |
| 1777842595 | 18.89° C | 40% | 1003.5 hPa | 0 mm | - | 61 W/m² | - |
| 1777842292 | 18.89° C | 36% | 1003.5 hPa | 0 mm | - | 35 W/m² | - |
| 1777841992 | 18.89° C | 36% | 1003.6 hPa | 0 mm | - | 52 W/m² | - |
| 1777841689 | 18.33° C | 39% | 1003.4 hPa | 0 mm | - | 37 W/m² | - |
| 1777841385 | 18.33° C | 40% | 1003.6 hPa | 0 mm | - | 33 W/m² | - |
| 1777841082 | 18.89° C | 40% | 1003.5 hPa | 0 mm | - | 32 W/m² | - |
| 1777840779 | 18.89° C | 40% | 1003.7 hPa | 0 mm | - | 47 W/m² | - |
| 1777840477 | 18.89° C | 42% | 1003.5 hPa | 0 mm | - | 52 W/m² | - |
| 1777840173 | 18.33° C | 41% | 1003.6 hPa | 0 mm | - | 55 W/m² | - |
| 1777839872 | 18.33° C | 41% | 1003.7 hPa | 0 mm | - | 29 W/m² | - |
* Rain latest hour (hover to see other rain measurements)
** Current wind speed in m/s (hover to see current wind gust speed)